Regional Weather Roundup
Issued by NWS

Home | Current Version | Previous Version | Text Only | Print | Product List | Glossary On
Versions: 1 2 3 4 5 6 7 8 9 10 11 12 13 14 15 16 17 18 19 20 21 22 23 24 25 26 27 28 29 30 31 32 33 34 35 36 37 38 39 40 41 42 43 44 45 46 47 48 49 50
000
ASUS43 KBIS 040002
RWRND

NORTH DAKOTA REGIONAL WEATHER ROUNDUP
NATIONAL WEATHER SERVICE BISMARCK ND
700 PM CDT FRI JUL 03 2015

NOTE: "FAIR" INDICATES FEW OR NO CLOUDS BELOW 12,000 FEET WITH NO
SIGNIFICANT WEATHER AND/OR OBSTRUCTIONS TO VISIBILITY.


NDZ001>003-009>011-017-040100-
NORTHWEST NORTH DAKOTA

CITY           SKY/WX    TMP DP  RH WIND       PRES   REMARKS
WILLISTON      SUNNY     86  56  35 VRB6      29.87F
6HR MIN TEMP:  81; 6HR MAX TEMP:  88;

MINOT          CLOUDY    80  63  55 SE8       29.88F HAZE
$$

NDZ018>021-031>035-040>046-040100-
SOUTHWEST NORTH DAKOTA

CITY           SKY/WX    TMP DP  RH WIND       PRES   REMARKS
BISMARCK       MOSUNNY   80  62  54 S7        29.92F HAZE
6HR MIN TEMP:  79; 6HR MAX TEMP:  83;

DICKINSON      MOSUNNY   80  62  54 SE9       29.91F
GARRISON         N/A     78  65  63 SE8       29.90F
6HR MIN TEMP:  76; 6HR MAX TEMP:  80;

HETTINGER ARPT SUNNY     81  58  45 S9        29.94F
$$

NDZ004>008-012>016-024-026-027-054-040100-
NORTHEAST NORTH DAKOTA

CITY           SKY/WX    TMP DP  RH WIND       PRES   REMARKS
GRAND FORKS    MOSUNNY   78  61  55 NE5       29.89F HAZE
GRND FRKS AFB  SUNNY     77  63  60 E6        29.91S
DEVILS LAKE    SUNNY     81  61  50 SE5       29.90F
$$

NDZ022-023-025-028>030-036>039-047>053-040100-
SOUTHEAST NORTH DAKOTA

CITY           SKY/WX    TMP DP  RH WIND       PRES   REMARKS
FARGO          SUNNY     80  63  55 NE6       29.89F HAZE
6HR MIN TEMP:  80; 6HR MAX TEMP:  84;

JAMESTOWN      CLOUDY    80  62  54 S5        29.91F HAZE
$$



USA.gov is the U.S. government's official web portal to all federal, state and local government web resources and services.